Regional Weather Roundup
Issued by NWS

Home | Current Version | Previous Version | Text Only | Print | Product List | Glossary Off
Versions: 1 2 3 4 5 6 7 8 9 10 11 12 13 14 15 16 17 18 19 20 21 22 23 24 25 26 27 28 29 30 31 32 33 34 35 36 37 38 39 40 41 42 43 44 45 46 47 48 49 50

000
ASUS43 KDMX 260606
RWRIA

WEATHER ROUNDUP FOR IOWA
NATIONAL WEATHER SERVICE DES MOINES IA
100 AM CDT THU APR 26 2018

NOTE: "FAIR" INDICATES FEW OR NO CLOUDS BELOW 12,000 FEET WITH NO
SIGNIFICANT WEATHER AND/OR OBSTRUCTIONS TO VISIBILITY.

* - THESE STATIONS ARE NOT NWS STATIONS...THUS NOT UNDER NWS
QUALITY CONTROL.  THEY ALSO DO NOT REPORT WEATHER SUCH
AS PRECIPITATION OR FOG.

IAZ001>003-012>014-020>022-031>034-043>046-260700-
   NORTHWEST IOWA

CITY           SKY/WX    TMP DP  RH WIND       PRES   REMARKS
CARROLL *      CLOUDY    36  30  80 CALM      29.98S
CHEROKEE *     PTCLDY    39  35  83 CALM      29.96F
DENISON *      CLOUDY    37  28  70 E5        29.99F WCI  34
LE MARS *      CLOUDY    43  36  75 CALM      29.96S
ORANGE CITY *  MOCLDY    46  30  53 CALM      29.95F
SHELDON *        N/A     39  32  75 SE3       29.94S
SIOUX CITY     CLOUDY    47  32  56 CALM      29.96F
6HR MIN TEMP:  42; 6HR MAX TEMP:  62;

SPENCER        CLOUDY    41  32  70 S5        29.95F
6HR MIN TEMP:  41; 6HR MAX TEMP:  60;

STORM LAKE *   MOCLDY    45  27  49 S8        29.97S
$$

IAZ055>058-069>071-079>083-090>094-260700-
   SOUTHWEST IOWA

CITY           SKY/WX    TMP DP  RH WIND       PRES   REMARKS
ATLANTIC *     CLEAR     37  34  87 CALM      29.99S
AUDUBON *      CLOUDY    32  27  80 CALM      29.99S
CLARINDA *     PTCLDY    41  36  81 CALM      30.02S
COUNCIL BLFS * CLOUDY    46  37  71 SW7       29.99S
CRESTON *      CLEAR     41  36  81 W7        30.00S
HARLAN  *      CLOUDY    37  28  70 CALM      30.02S
LAMONI         CLEAR     42  37  82 W9        29.98F
6HR MIN TEMP:  41; 6HR MAX TEMP:  57;

RED OAK *      CLEAR     37  34  87 CALM      30.00S
SHENANDOAH *   CLEAR     39  37  93 CALM      30.01R
$$

IAZ047>049-059>061-072>074-084-260700-
   CENTRAL IOWA

CITY           SKY/WX    TMP DP  RH WIND       PRES   REMARKS
AMES           CLEAR     40  34  79 CALM      29.97F
6HR MIN TEMP:  40; 6HR MAX TEMP:  62;

ANKENY *       CLEAR     39  32  75 N3        29.99S
BOONE *        CLEAR     45  34  65 E6        29.96F
CHARITON *     CLEAR     45  30  57 W7        29.98S
DES MOINES     PTCLDY    51  31  46 CALM      29.98F
6HR MIN TEMP:  48; 6HR MAX TEMP:  64;

GRINNELL*      CLEAR     41  29  64 N5        29.98S
KNOXVILLE *    CLEAR     43  28  56 W6        29.97S
MARSHALLTOWN   CLEAR     41  33  73 N3        29.97F
6HR MIN TEMP:  39; 6HR MAX TEMP:  61;

NEWTON *       CLEAR     45  30  57 NE7       29.98S
PELLA *        CLEAR     44  31  59 CALM      29.99F
PERRY *        FAIR      43  29  56 E3        29.98F
$$

IAZ004>006-015-016-023>025-035-036-260700-
   NORTH CENTRAL IOWA

CITY           SKY/WX    TMP DP  RH WIND       PRES   REMARKS
ALGONA *       CLOUDY    45  37  76 SE6       29.97S
CLARION *      CLOUDY    43  36  75 E3        29.97F
ESTHERVILLE    CLOUDY    41  37  86 S7        29.95F
6HR MIN TEMP:  40; 6HR MAX TEMP:  55;

FORT DODGE *   CLOUDY    42  34  73 CALM      29.98F
MASON CITY     CLOUDY    40  38  93 CALM      29.98F
6HR MIN TEMP:  38; 6HR MAX TEMP:  57;

FOREST CITY *  FAIR      39  37  93 CALM      29.96F
WEBSTER CITY * CLOUDY    43  34  70 E5        29.96S
IOWA FALLS *   FAIR      42  36  80 CALM      29.98F
$$

IAZ007>011-017>019-026>030-037>042-050>054-066-260700-
   NORTHEAST IOWA

CITY           SKY/WX    TMP DP  RH WIND       PRES   REMARKS
CEDAR RAPIDS   FAIR      43  29  57 NW8       29.96S
6HR MIN TEMP:  43; 6HR MAX TEMP:  63;

CHARLES CITY * FAIR      43  34  70 CALM      29.97F
CLINTON *      FAIR      44  34  67 E7        29.98F
DECORAH *      MOCLDY    45  28  53 CALM      29.95F
DUBUQUE        FAIR      43  29  57 CALM      29.97S
6HR MIN TEMP:  42; 6HR MAX TEMP:  60;

MONTICELLO *   FAIR      37  32  81 CALM      29.97S
OELWEIN *      FAIR      41  34  75 N3        29.97F
WATERLOO       FAIR      37  31  78 CALM      29.97F
6HR MIN TEMP:  36; 6HR MAX TEMP:  59;

$$

IAZ064-065-067-068-078-260700-
   EAST CENTRAL IOWA

CITY           SKY/WX    TMP DP  RH WIND       PRES   REMARKS
DAVENPORT      FAIR      44  32  62 SE8       29.99S
6HR MIN TEMP:  41; 6HR MAX TEMP:  61;

IOWA CITY      FAIR      43  31  62 CALM      29.98S
6HR MIN TEMP:  41; 6HR MAX TEMP:  64;

MT. PLEASANT * CLEAR     41  32  70 SW5       29.96F
MUSCATINE *    FAIR      43  32  65 CALM      29.97S
QUAD CITIES    FAIR      41  33  73 E8        29.96F
6HR MIN TEMP:  39; 6HR MAX TEMP:  64;

$$

IAZ062-063-075>077-085>089-095>099-260700-
   SOUTHEAST IOWA

CITY           SKY/WX    TMP DP  RH WIND       PRES   REMARKS
BURLINGTON     CLEAR     45  34  65 CALM      29.96F
6HR MIN TEMP:  43; 6HR MAX TEMP:  62;

FAIRFIELD *    CLEAR     39  27  60 W6        29.96S WCI  35
FORT MADISON * CLEAR     48  37  66 S5        29.97F
KEOKUK *       CLEAR     46  37  71 SW5       29.96F
OSKALOOSA *    FAIR      42  27  55 NW7       29.98F
CENTERVILLE *  FAIR      39  32  75 CALM      29.99F
OTTUMWA        CLEAR     43  29  57 NW7       29.97S
6HR MIN TEMP:  42; 6HR MAX TEMP:  63;

WASHINGTON *   CLEAR     45  28  53 N7        29.98R
$$

ABBREVIATIONS USED IN REMARKS
   TC - TEMPERATURES IN CELSIUS
  WCI - WIND CHILL INDEX
   HX - HEAT INDEX
  VSB - VISIBILITY
$$





USA.gov is the U.S. government's official web portal to all federal, state and local government web resources and services.